Home   Weather   Bujumbura   Past weeks

Flag for Burundi Past Weather in Bujumbura, Burundi — Yesterday and Last 2 Weeks

Now
68 °F

Thundershowers. Passing clouds.


Feels Like: 68 °F
Forecast: 66 / 83 °F
Wind: 14 mph from North

Location: Entebbe Airport

Current Time: Apr 26, 2017 at 6:01:52 am

Latest Report: Apr 26, 2017 at 5:00 am


Visibility: 4 mi

Pressure: 30.04 "Hg (27.38 "Hg at 794m altitude)

Humidity: 94%

Dew Point: 66 °F

Location of BujumburaLocation

Past Weather in Bujumbura — Graph

°F

Bujumbura Temperature Yesterday

Maximum temperature yesterday: 79 °F (at 2:00 pm)
Minimum temperature yesterday: 66 °F (at 8:00 am)
Average temperature yesterday: 72 °F

High & Low Weather Summary for the Past Weeks

 TemperatureHumidityPressure
High81 °F (Apr 19, 1:00 pm)100% (Apr 14, 6:00 am)30.09 "Hg (Apr 14, 6:00 am)
Low66 °F (Apr 20, 1:00 am)69% (Apr 22, 4:00 pm)29.92 "Hg (Apr 20, 5:00 pm)
Average73 °F85%30.02 "Hg
* Reported Apr 14 6:00 am — Apr 26 5:00 am, Bujumbura, Weather by CustomWeather, © 2017

Note: Actual official high and low records may vary slightly from our data, if they occured in-between our weather recording intervals... More about our weather records

Advertising

Bujumbura Weather History for the Previous 24 Hours

Scroll right to see more
 ConditionsComfort  
Time TempWeatherWind HumidityBarometerVisibility
5:00 am
Wed, Apr 26
68 °FThundershowers. Passing clouds.14 mph94%30.04 "Hg4 mi
4:00 am68 °FPassing clouds.13 mph100%30.04 "Hg5 mi
3:00 am70 °FPassing clouds.6 mph100%30.01 "Hg5 mi
2:00 am70 °FPassing clouds.7 mph94%30.01 "Hg5 mi
1:00 am70 °FPassing clouds.7 mph94%30.04 "Hg5 mi
12:00 am70 °FPassing clouds.8 mph100%30.04 "Hg5 mi
11:00 pm
Tue, Apr 25
70 °FMild.14 mph94%30.07 "Hg5 mi
10:00 pm70 °FMild.7 mph100%30.04 "Hg5 mi
9:00 pm72 °FMild.9 mph94%30.04 "Hg6 mi
8:00 pm72 °FOvercast.8 mph88%30.01 "Hg6 mi
7:00 pm73 °FOvercast.16 mph83%30.01 "Hg6 mi
6:00 pm73 °FPassing clouds.14 mph83%29.98 "HgN/A
5:00 pm75 °FPartly sunny.15 mph78%29.98 "HgN/A
4:00 pm77 °FPartly sunny.10 mph79%29.98 "HgN/A
3:00 pm77 °FPartly sunny.10 mph74%29.98 "HgN/A
2:00 pm79 °FPartly sunny.9 mph70%30.01 "HgN/A
1:00 pm77 °FPartly sunny.9 mph74%30.07 "HgN/A
12:00 pm77 °FPartly sunny.15 mph74%30.07 "HgN/A
11:00 am75 °FPartly sunny.14 mph74%30.09 "HgN/A
10:00 am73 °FPartly sunny.17 mph83%30.09 "HgN/A
9:00 am72 °FMostly cloudy.12 mph88%30.09 "HgN/A
8:00 am66 °FThunderstorms. Mostly cloudy.14 mph94%30.09 "Hg5 mi
7:00 am68 °FStrong thunderstorms. Mostly cloudy.21 mph94%30.09 "Hg1 mi
6:00 am68 °FThunderstorms. Mostly cloudy.16 mph100%30.07 "Hg4 mi
Weather by CustomWeather, © 2017

See weather overviewHow to use our weather pages